TimeCDT,TemperatureF,Dew PointF,Humidity,Sea Level PressureIn,VisibilityMPH,Wind Direction,Wind SpeedMPH,Gust SpeedMPH,PrecipitationIn,Events,Conditions,WindDirDegrees,DateUTC
12:03 AM,62.6,60.8,94,29.82,10.0,South,21.9,31.1,N/A,,Mostly Cloudy,180,2013-10-31 05:03:00
12:36 AM,62.6,60.8,94,29.78,10.0,South,24.2,32.2,0.00,Rain,Light Rain,170,2013-10-31 05:36:00
12:53 AM,63.0,61.0,93,29.76,10.0,South,11.5,26.5,0.00,,Overcast,190,2013-10-31 05:53:00
1:53 AM,63.0,61.0,93,29.75,10.0,South,9.2,-,N/A,,Overcast,170,2013-10-31 06:53:00
2:53 AM,63.0,61.0,93,29.74,10.0,South,8.1,-,N/A,,Overcast,190,2013-10-31 07:53:00
3:53 AM,63.0,62.1,97,29.69,10.0,South,15.0,25.3,0.00,,Overcast,180,2013-10-31 08:53:00
4:53 AM,64.0,62.1,93,29.65,10.0,South,12.7,20.7,N/A,,Overcast,170,2013-10-31 09:53:00
5:00 AM,62.6,62.6,100,29.67,10.0,South,10.4,-,N/A,,Overcast,170,2013-10-31 10:00:00
5:32 AM,62.6,62.6,100,29.65,10.0,South,8.1,-,N/A,,Overcast,170,2013-10-31 10:32:00
5:53 AM,63.0,62.1,97,29.61,10.0,South,4.6,-,0.00,,Overcast,180,2013-10-31 10:53:00
6:53 AM,64.0,62.1,93,29.62,10.0,Calm,Calm,-,N/A,,Overcast,0,2013-10-31 11:53:00
7:53 AM,64.0,63.0,96,29.62,7.0,SW,5.8,-,0.03,Rain,Light Rain,230,2013-10-31 12:53:00
8:21 AM,62.6,62.6,100,29.64,10.0,Calm,Calm,-,0.02,Rain,Light Rain,0,2013-10-31 13:21:00
8:34 AM,64.4,62.6,94,29.64,10.0,SW,6.9,-,0.02,,Overcast,220,2013-10-31 13:34:00
8:49 AM,64.4,62.6,94,29.63,6.0,South,8.1,-,0.03,Rain,Light Rain,180,2013-10-31 13:49:00
8:53 AM,64.0,63.0,96,29.60,6.0,South,6.9,-,0.03,Rain,Light Rain,170,2013-10-31 13:53:00
9:53 AM,64.9,63.0,93,29.60,10.0,SW,6.9,-,0.00,,Scattered Clouds,220,2013-10-31 14:53:00
10:13 AM,66.2,62.6,88,29.62,10.0,SSW,10.4,-,N/A,,Overcast,200,2013-10-31 15:13:00
10:33 AM,66.2,64.4,94,29.62,10.0,SSW,9.2,-,N/A,,Overcast,200,2013-10-31 15:33:00
10:53 AM,66.9,64.9,93,29.57,10.0,South,15.0,19.6,0.00,,Overcast,190,2013-10-31 15:53:00
11:09 AM,68.0,64.4,88,29.59,10.0,SSW,11.5,19.6,N/A,,Overcast,210,2013-10-31 16:09:00
11:53 AM,69.1,63.0,81,29.54,10.0,SSW,13.8,24.2,N/A,,Overcast,210,2013-10-31 16:53:00
12:37 PM,71.6,60.8,69,29.56,10.0,SW,17.3,23.0,N/A,,Scattered Clouds,220,2013-10-31 17:37:00
12:53 PM,71.1,59.0,66,29.52,10.0,SW,18.4,27.6,N/A,,Partly Cloudy,220,2013-10-31 17:53:00
1:53 PM,71.1,53.1,53,29.49,10.0,WSW,15.0,31.1,N/A,,Mostly Cloudy,250,2013-10-31 18:53:00
2:53 PM,69.1,43.0,39,29.52,10.0,WSW,25.3,43.7,N/A,,Partly Cloudy,250,2013-10-31 19:53:00
3:53 PM,64.0,48.0,56,29.57,10.0,West,19.6,28.8,N/A,,Mostly Cloudy,260,2013-10-31 20:53:00
4:23 PM,57.2,53.6,88,29.63,5.0,West,16.1,28.8,0.08,Rain,Heavy Rain,280,2013-10-31 21:23:00
4:53 PM,55.9,54.0,93,29.64,8.0,WNW,13.8,24.2,0.08,,Overcast,290,2013-10-31 21:53:00
5:53 PM,55.9,50.0,80,29.68,10.0,West,10.4,19.6,N/A,,Mostly Cloudy,280,2013-10-31 22:53:00
6:53 PM,54.0,48.9,83,29.72,10.0,West,9.2,-,N/A,,Clear,260,2013-10-31 23:53:00
7:53 PM,51.1,46.9,86,29.72,10.0,West,3.5,-,N/A,,Clear,260,2013-11-01 00:53:00
8:53 PM,48.0,46.9,96,29.74,10.0,SSW,4.6,-,N/A,,Clear,210,2013-11-01 01:53:00
9:53 PM,48.0,46.9,96,29.76,10.0,SW,3.5,-,N/A,,Clear,230,2013-11-01 02:53:00
10:53 PM,46.9,46.0,97,29.77,10.0,SSW,5.8,-,N/A,,Clear,200,2013-11-01 03:53:00
11:53 PM,48.0,46.0,93,29.78,10.0,SSW,8.1,-,0.01,,Clear,200,2013-11-01 04:53:00